Location: Azul
(36.7830°S, 59.8500°W)
Time: 10:28:35
(UTC-03:00)

PRISM - Visible Passes

Search period start: 22 October 2021 00:00
Search period end: 01 November 2021 00:00
Orbit: 563 x 583 km, 98.2° (Epoch: 21 October)

Date Brightness Start Highest point End Pass type
(mag) Time Alt. Az. Time Alt. Az. Time Alt. Az.
22 Oct ? 04:10:14 64° N 04:10:49 82° WNW 04:14:55 10° SSW visible
23 Oct ? 04:12:51 56° N 04:13:37 76° WNW 04:17:43 10° SSW visible
24 Oct ? 04:15:29 50° NNW 04:16:24 70° WNW 04:20:30 10° SSW visible
25 Oct ? 04:18:05 44° NNW 04:19:12 65° WNW 04:23:17 10° SSW visible
26 Oct ? 04:20:43 39° NNW 04:22:00 60° W 04:26:03 10° SSW visible
27 Oct ? 02:49:16 10° ESE 02:50:12 11° ESE 02:51:08 10° SE visible
27 Oct ? 04:23:19 35° NNW 04:24:47 56° W 04:28:49 10° SSW visible
28 Oct ? 02:51:36 10° E 02:52:57 11° ESE 02:54:19 10° SE visible
28 Oct ? 04:25:56 31° NNW 04:27:35 51° W 04:31:35 10° SSW visible
29 Oct ? 02:54:03 10° E 02:55:42 12° ESE 02:57:22 10° SE visible
29 Oct ? 04:28:33 28° NNW 04:30:22 48° W 04:34:20 10° SSW visible
30 Oct ? 02:56:32 10° E 02:58:27 13° ESE 03:00:23 10° SE visible
30 Oct ? 04:31:11 25° NNW 04:33:09 44° W 04:37:05 10° SSW visible
31 Oct ? 02:59:04 10° E 03:01:12 14° ESE 03:03:20 10° SE visible
31 Oct ? 04:33:48 22° NNW 04:35:55 41° W 04:39:49 10° SSW visible
